[[{"header":{"parameterUnit":"m.s-1","parameterCategory":1,"la1":30.2991,"la2":30.254,"lo1":-89.0895,"lo2":-89.0444,"dy":0.0017,"dx":0.0017,"nx":28,"ny":28,"refTime":"2023-08-13T21:00:00:Z","depth":0,"parameterNumber":2,"parameterNumberName":"U-component_of_WINDS"},"data":[0,0,0,0,0,0,0,0,0,0,0,0,0,0,0,0,0,0,0,0,0,0,0,0,0,0,0,0,0,0,0,0,0,0,0,0,0,0,0,0,0,0,0,0,0,0,0,0,0,0,0,0,0,0,0,0,0,0,5.5984,5.5986,0,5.6158,5.616,5.6162,5.61,5.6096,5.6092,5.6089,5.6269,5.6277,5.6286,0,0,0,0,0,0,0,0,0,0,0,0,0,5.5599,5.5606,5.5984,5.5986,5.5988,5.6158,5.616,5.6163,5.6101,5.6096,5.6091,5.6087,5.6266,5.6276,5.6286,0,0,0,0,0,0,0,0,0,0,0,0,0,5.5769,5.5608,5.5984,5.5978,5.5979,5.6158,5.616,5.6163,5.6102,5.6096,5.609,5.6085,5.6263,5.6275,5.6288,5.6483,0,0,5.6327,5.6332,0,0,0,0,0,0,0,0,5.5759,5.5783,5.5977,5.5979,5.598,5.6101,5.6091,5.6271,5.6103,5.6055,5.6089,5.6082,5.6218,5.6234,5.628,5.6491,5.6499,5.6328,5.6335,5.6341,5.6344,0,0,0,0,0,0,0,5.5748,5.5775,5.6053,5.5979,5.5982,5.5967,5.5985,5.6124,5.6168,5.6059,5.6055,5.6076,5.6218,5.6268,5.6284,5.6502,5.6327,5.6339,5.6346,5.6351,5.6881,5.6887,0,0,0,0,0,0,5.5735,5.5766,5.6047,5.6058,5.5853,5.5979,5.5998,5.6069,5.6166,5.6175,5.6081,5.6073,5.6249,5.6269,5.629,5.6523,5.6341,5.6353,5.636,5.6874,5.6882,5.6889,0,0,0,0,0,0,5.5727,5.576,5.604,5.5911,5.5945,5.5991,5.6071,5.6075,5.6124,5.6182,5.619,5.6124,5.6245,5.6272,5.6435,5.6528,5.6358,5.637,5.6867,5.6877,5.6886,5.6992,0,0,0,0,0,0,5.5716,5.5758,5.5832,5.5913,5.5953,5.6183,5.6077,5.6083,5.6146,5.6137,5.6224,5.6233,5.6243,5.6416,5.6447,5.6543,5.638,5.6858,5.6871,5.6882,5.698,5.7004,5.7025,0,0,0,0,0,5.5702,5.5856,5.5836,5.5871,5.6047,5.6188,5.6211,5.6218,5.6154,5.6229,5.6266,5.6231,5.6513,5.6433,5.6468,5.6569,5.6852,5.6867,5.6882,5.697,5.7,5.7024,0,0,0,0,0,0,5.5786,5.5867,5.5846,5.603,5.6103,5.6177,5.6272,5.6249,5.6341,5.6329,5.6334,5.6354,5.6522,5.6562,5.6471,5.6762,5.6673,5.6696,5.6729,5.6757,5.6779,5.6765,5.639,0,0,0,0,0,5.5826,5.5934,5.5999,5.6155,5.6193,5.6227,5.6289,5.6288,5.6363,5.6394,5.6443,5.6518,5.6623,5.6693,5.6793,5.6986,5.7004,5.7073,5.7095,5.7112,5.7131,5.7234,5.7265,5.6937,5.6937,5.6936,0,0,5.591,5.5967,5.6035,5.6174,5.623,5.6341,5.6253,5.6375,5.6458,5.6412,5.6568,5.6607,5.6691,5.687,5.6951,5.6908,5.7226,5.7131,5.7145,5.7154,5.7253,5.7284,5.7311,5.6947,5.6945,5.6943,0,0,5.6119,5.6174,5.6309,5.6367,5.6452,5.6474,5.6506,5.6585,5.6608,5.6765,5.6733,5.6832,5.7014,5.7075,5.7129,5.7361,5.7331,5.7394,5.7509,5.7609,5.7635,5.7658,5.7739,5.7768,5.7412,5.7413,5.7413,0,5.6212,5.6378,5.6382,5.6507,5.6568,5.6531,5.6668,5.6724,5.6839,5.6882,5.6833,5.7059,5.7114,5.7305,5.7361,5.7408,5.7444,5.7383,5.7631,5.7654,5.7675,5.7753,5.7783,5.7419,5.7419,5.7418,5.7417,0,5.6488,5.6604,5.6703,5.6813,5.6886,5.7016,5.704,5.7113,5.7106,5.7132,5.7292,5.7356,5.7467,5.7513,5.7508,5.7704,5.7674,5.7629,5.7539,5.7714,5.7786,5.7816,5.7429,5.7427,5.7425,5.7423,0,0,5.6755,5.6864,5.69,5.6949,5.704,5.713,5.7259,5.7367,5.7429,5.751,5.7617,5.7771,5.7729,5.7791,5.7792,5.7881,5.8058,5.7824,5.7826,5.7863,5.8276,5.8308,5.8342,5.8039,5.8045,5.8049,5.8268,0,5.6969,5.7194,5.7201,5.7406,5.7512,5.7479,5.759,5.7658,5.7687,5.7781,5.7813,5.7921,5.7858,5.7895,5.7981,5.8018,5.814,5.8003,5.8138,5.8143,5.8116,5.8381,5.8416,5.8619,5.8296,5.8301,5.8305,0,5.725,5.7338,5.7553,5.7628,5.7672,5.7773,5.7872,5.7963,5.8039,5.8054,5.8123,5.811,5.8241,5.8149,5.8329,5.8235,5.8291,5.8318,5.8326,5.8337,5.8233,5.8398,5.8684,5.8714,5.835,5.8346,5.8343,0,5.7421,5.7593,5.7743,5.7786,5.7878,5.7949,5.799,5.8061,5.8125,5.8212,5.8253,5.8356,5.8411,5.849,5.8506,5.8437,5.8686,5.8595,5.87,5.87,5.8753,5.8749,5.9051,5.8792,5.8792,5.8791,5.8791,0,5.7659,5.7792,5.7821,5.7913,5.8061,5.8068,5.8213,5.825,5.8313,5.8411,5.839,5.8483,5.8498,5.8595,5.8609,5.8755,5.8781,5.8795,5.8797,5.8796,5.8794,5.8832,5.8817,5.8799,5.8797,5.8796,5.8794,0,5.7874,5.7899,5.8061,5.8133,5.8155,5.826,5.8322,5.8411,5.8436,5.8561,5.8591,5.8632,5.8744,5.8768,5.8902,5.8911,5.9084,5.9073,5.9058,5.9056,5.9159,5.9148,5.9494,5.9539,5.9253,5.9256,5.9258,0,5.8024,5.8125,5.8208,5.8272,5.8316,5.842,5.8485,5.8496,5.8565,5.8658,5.8736,5.8846,5.8934,5.9116,5.9157,5.926,5.9249,5.9364,5.9265,5.926,5.9249,5.9242,5.9251,5.9382,5.9385,5.9388,5.939,0,5.8286,5.8293,5.8387,5.8486,5.8564,5.8642,5.8717,5.8771,5.8791,5.887,5.8984,5.9053,5.9189,5.9298,5.94,5.9443,5.942,5.9421,5.945,5.945,5.9436,5.9443,5.9107,5.9412,5.941,5.9408,5.9407,5.9406,5.8472,5.856,5.8631,5.8736,5.8793,5.8863,5.8949,5.8985,5.908,5.919,5.9191,5.9316,5.9389,5.9523,5.9572,5.967,5.9634,5.9677,5.9688,5.9698,5.9706,5.9422,5.9689,5.9688,5.9688,5.9687,5.9687,0,5.8732,5.8776,5.8873,5.8976,5.9059,5.903,5.9111,5.9182,5.9291,5.9361,5.9448,5.9578,5.9684,5.9734,5.9838,5.9906,5.9898,5.9933,5.9927,5.9937,5.9733,5.9696,5.9938,5.9938,5.9938,5.9937,5.9937,5.9937,5.8876,5.9022,5.9037,5.9211,5.9254,5.9375,5.9423,5.9487,5.9542,5.9689,5.9776,5.9807,5.9869,5.9977,6.0072,6.0084,6.0123,6.0162,6.0169,5.9977,5.9952,5.9927,5.9893,6.0171,6.0171,6.0364,6.0366,6.0367]},{"header":{"parameterUnit":"m.s-1","parameterCategory":1,"la1":30.2991,"la2":30.254,"lo1":-89.0895,"lo2":-89.0444,"dy":0.0017,"dx":0.0017,"nx":28,"ny":28,"refTime":"2023-08-13T21:00:00:Z","depth":0,"parameterNumber":3,"parameterNumberName":"V-component_of_WINDS"},"data":[0,0,0,0,0,0,0,0,0,0,0,0,0,0,0,0,0,0,0,0,0,0,0,0,0,0,0,0,0,0,0,0,0,0,0,0,0,0,0,0,0,0,0,0,0,0,0,0,0,0,0,0,0,0,0,0,0,0,1.0913,1.0913,0,1.0957,1.0957,1.0958,1.0941,1.094,1.0939,1.0938,1.0985,1.0987,1.0989,0,0,0,0,0,0,0,0,0,0,0,0,0,1.0815,1.0817,1.0913,1.0913,1.0914,1.0957,1.0957,1.0958,1.0941,1.094,1.0939,1.0938,1.0984,1.0987,1.0989,0,0,0,0,0,0,0,0,0,0,0,0,0,1.0858,1.0818,1.0913,1.0911,1.0911,1.0956,1.0957,1.0958,1.0941,1.094,1.0938,1.0937,1.0983,1.0986,1.0989,1.104,0,0,1.0999,1.1001,0,0,0,0,0,0,0,0,1.0856,1.0862,1.091,1.0911,1.0911,1.0942,1.094,1.0985,1.0942,1.093,1.0938,1.0936,1.0972,1.0976,1.0987,1.1042,1.1044,1.1,1.1002,1.1003,1.1004,0,0,0,0,0,0,0,1.0853,1.086,1.093,1.0911,1.0912,1.0908,1.0912,1.0948,1.0959,1.0931,1.093,1.0935,1.0972,1.0984,1.0988,1.1045,1.1,1.1003,1.1005,1.1006,1.1142,1.1144,0,0,0,0,0,0,1.085,1.0858,1.0929,1.0931,1.0879,1.0911,1.0916,1.0934,1.0958,1.0961,1.0936,1.0934,1.0979,1.0985,1.099,1.105,1.1003,1.1006,1.1008,1.1141,1.1143,1.1145,0,0,0,0,0,0,1.0848,1.0856,1.0927,1.0894,1.0903,1.0914,1.0934,1.0935,1.0948,1.0962,1.0964,1.0947,1.0978,1.0985,1.1027,1.1052,1.1008,1.1011,1.1139,1.1141,1.1144,1.1172,0,0,0,0,0,0,1.0845,1.0856,1.0875,1.0895,1.0905,1.0964,1.0936,1.0937,1.0953,1.0951,1.0973,1.0976,1.0978,1.1023,1.1031,1.1056,1.1013,1.1137,1.114,1.1143,1.1169,1.1175,1.118,0,0,0,0,0,1.0842,1.0882,1.0876,1.0885,1.0929,1.0965,1.0971,1.0972,1.0955,1.0975,1.0984,1.0975,1.1048,1.1027,1.1036,1.1062,1.1135,1.1139,1.1143,1.1166,1.1174,1.118,0,0,0,0,0,0,1.0865,1.0884,1.0878,1.0926,1.0944,1.0962,1.0987,1.098,1.1004,1.1001,1.1002,1.1007,1.105,1.106,1.1037,1.1112,1.1089,1.1095,1.1104,1.1111,1.1117,1.1114,1.1016,0,0,0,0,0,1.0876,1.0903,1.0918,1.0959,1.0968,1.0976,1.0992,1.0991,1.101,1.1018,1.103,1.1049,1.1076,1.1094,1.112,1.117,1.1175,1.1192,1.1198,1.1203,1.1208,1.1235,1.1243,1.1157,1.1157,1.1157,0,0,1.0898,1.0912,1.0929,1.0964,1.0978,1.1006,1.0983,1.1014,1.1035,1.1023,1.1063,1.1072,1.1094,1.114,1.1161,1.115,1.1232,1.1207,1.1211,1.1214,1.1239,1.1247,1.1255,1.1159,1.1159,1.1158,0,0,1.0954,1.0967,1.1002,1.1016,1.1037,1.1042,1.105,1.1069,1.1075,1.1115,1.1106,1.1131,1.1178,1.1193,1.1207,1.1267,1.126,1.1275,1.1306,1.1332,1.1339,1.1345,1.1366,1.1374,1.128,1.128,1.1281,0,1.098,1.1022,1.1021,1.1053,1.1068,1.1057,1.1092,1.1106,1.1135,1.1146,1.1133,1.119,1.1204,1.1253,1.1268,1.1279,1.1289,1.1273,1.1338,1.1344,1.1349,1.137,1.1378,1.1282,1.1282,1.1282,1.1282,0,1.1052,1.1081,1.1107,1.1134,1.1152,1.1186,1.119,1.1209,1.1206,1.1212,1.1253,1.1268,1.1297,1.1308,1.1306,1.1357,1.135,1.1337,1.1314,1.1359,1.1379,1.1387,1.1285,1.1284,1.1284,1.1283,0,0,1.1125,1.115,1.116,1.1172,1.1193,1.1216,1.1249,1.1276,1.1292,1.1311,1.1339,1.1378,1.1366,1.1382,1.1381,1.1404,1.145,1.1389,1.1389,1.14,1.1507,1.1517,1.1526,1.1445,1.1446,1.1448,1.1506,0,1.1183,1.124,1.1239,1.1292,1.1319,1.1308,1.1337,1.1353,1.1359,1.1383,1.139,1.1418,1.14,1.141,1.1432,1.144,1.1472,1.1436,1.1471,1.1472,1.1467,1.1536,1.1547,1.1601,1.1513,1.1514,1.1515,0,1.1258,1.1279,1.1334,1.1351,1.1362,1.1388,1.1412,1.1435,1.1453,1.1456,1.1473,1.1469,1.1502,1.1477,1.1523,1.1498,1.1512,1.1519,1.1521,1.1525,1.1497,1.1542,1.1618,1.1626,1.1527,1.1526,1.1525,0,1.1306,1.1348,1.1386,1.1397,1.1418,1.1436,1.1445,1.1462,1.1478,1.1499,1.1509,1.1534,1.1548,1.1568,1.157,1.1552,1.1616,1.1592,1.162,1.162,1.1635,1.1634,1.1714,1.1643,1.1643,1.1643,1.1643,0,1.137,1.1405,1.1408,1.1432,1.147,1.1469,1.1507,1.1515,1.1529,1.1554,1.1546,1.157,1.1572,1.1596,1.1598,1.1636,1.1642,1.1645,1.1646,1.1646,1.1646,1.1656,1.1653,1.1645,1.1644,1.1644,1.1644,0,1.1431,1.1434,1.1476,1.1491,1.1496,1.1523,1.1537,1.1559,1.1564,1.1596,1.1603,1.1611,1.1639,1.1643,1.1677,1.1678,1.1723,1.1719,1.1717,1.1717,1.1744,1.1742,1.1834,1.1847,1.1767,1.1768,1.1769,0,1.1472,1.1498,1.1516,1.1532,1.1542,1.1568,1.1584,1.1584,1.1601,1.1623,1.1643,1.167,1.1692,1.1737,1.1746,1.1771,1.1768,1.1799,1.1772,1.1772,1.1769,1.1767,1.177,1.1804,1.1805,1.1806,1.1806,0,1.1545,1.1545,1.1568,1.1592,1.1611,1.163,1.1647,1.1661,1.1663,1.1682,1.171,1.1727,1.176,1.1788,1.1812,1.1822,1.1815,1.1814,1.1822,1.1824,1.1821,1.1823,1.1731,1.1813,1.1812,1.1812,1.1811,1.1811,1.1597,1.1619,1.1635,1.1661,1.1674,1.1691,1.1712,1.1719,1.1743,1.177,1.1768,1.1799,1.1816,1.1848,1.1859,1.1884,1.1874,1.1885,1.1888,1.1891,1.1894,1.1817,1.1888,1.1888,1.1888,1.1888,1.1888,0,1.167,1.1679,1.1703,1.1727,1.1747,1.1737,1.1756,1.1774,1.1801,1.1817,1.1838,1.1871,1.1897,1.1907,1.1932,1.195,1.1947,1.1956,1.1955,1.1958,1.1902,1.1892,1.1958,1.1958,1.1958,1.1958,1.1958,1.1958,1.171,1.1747,1.1749,1.1792,1.1802,1.1832,1.1843,1.1858,1.1871,1.1907,1.1928,1.1934,1.1948,1.1974,1.1997,1.2,1.2009,1.2021,1.2021,1.1969,1.1962,1.1955,1.1946,1.2023,1.2023,1.2076,1.2076,1.2076]}]]